EA3KZ-1 Weather Reports


Display with metric or nautical units.
time (UTC)temp
F
wind
direction
speed
MPH
gust
MPH
rain 1hr
in
rain 24hr
in
rain mn
in
humidity
%
barometer
mb
20260503015106 58 1 1.0 4.0 0.00 0.00 0.00 89 1013.2
20260503014104 58 324 1.0 4.0 0.00 0.00 0.00 88 1013.1
20260503013101 58 8 2.0 6.0 0.00 0.00 0.00 88 1013.2
20260503012058 58 314 3.0 6.0 0.00 0.00 0.00 89 1013.2
20260503011056 58 10 3.0 6.0 0.00 0.00 0.00 89 1013.3
20260503010053 58 344 2.0 6.0 0.00 0.00 0.00 89 1013.7
20260503005051 58 328 2.0 4.0 0.00 0.00 0.00 89 1013.9
20260503004048 58 359 3.0 4.0 0.00 0.00 0.00 89 1013.9
20260503003045 59 304 2.0 6.0 0.00 0.00 0.00 88 1014.1
20260503002043 59 29 2.0 6.0 0.00 0.00 0.00 88 1014.3
20260503001040 59 338 3.0 7.0 0.00 0.00 0.00 88 1014.2
20260503000038 59 344 2.0 7.0 0.00 0.00 0.00 88 1014.5
20260502235035 59 305 4.0 9.0 0.00 0.00 0.00 87 1014.5
20260502234032 59 358 5.0 9.0 0.00 0.00 0.00 87 1014.7
20260502233030 59 334 4.0 8.0 0.00 0.00 0.00 88 1014.7
20260502232027 59 340 4.0 7.0 0.00 0.00 0.00 88 1014.9
20260502231024 59 320 4.0 6.0 0.00 0.00 0.00 88 1014.9
20260502230021 59 2 3.0 7.0 0.00 0.00 0.00 87 1014.8
20260502225018 59 349 3.0 7.0 0.00 0.00 0.00 87 1014.6
20260502224016 59 308 3.0 7.0 0.00 0.00 0.00 87 1014.7
20260502223113 59 331 3.0 6.0 0.00 0.00 0.00 87 1014.9
20260502222111 59 316 5.0 8.0 0.00 0.00 0.00 87 1015.0
20260502221108 59 335 6.0 8.0 0.00 0.00 0.00 86 1015.2
20260502220106 59 351 5.0 8.0 0.00 0.00 0.00 86 1015.2
20260502215103 59 351 6.0 11.0 0.00 0.00 0.00 86 1015.1
20260502214100 59 330 4.0 9.0 0.00 0.00 0.00 86 1015.2
20260502213058 59 348 2.0 6.0 0.00 0.00 0.00 86 1015.4
20260502212055 59 359 4.0 7.0 0.00 0.00 0.00 86 1015.5
20260502211053 59 11 3.0 7.0 0.00 0.00 0.00 86 1015.4
20260502210050 59 350 2.0 4.0 0.00 0.00 0.00 86 1015.6
20260502205048 59 340 3.0 7.0 0.00 0.00 0.00 86 1015.4
20260502204045 59 14 3.0 8.0 0.00 0.00 0.00 86 1015.6
20260502203042 59 351 3.0 6.0 0.00 0.00 0.00 86 1015.4
20260502202039 59 51 2.0 6.0 0.00 0.00 0.00 86 1015.5
20260502201037 59 23 4.0 7.0 0.00 0.00 0.00 86 1015.3
20260502200034 59 330 4.0 8.0 0.00 0.00 0.00 85 1015.2
20260502195031 59 334 4.0 7.0 0.00 0.00 0.00 84 1015.1
20260502194028 59 350 3.0 7.0 0.00 0.00 0.00 84 1015.0
20260502193026 60 329 3.0 6.0 0.00 0.00 0.00 84 1015.1
20260502192023 59 15 3.0 7.0 0.00 0.00 0.00 84 1015.2
20260502191020 60 94 2.0 4.0 0.00 0.00 0.00 83 1015.0
20260502190018 60 114 1.0 4.0 0.00 0.00 0.00 81 1015.2
20260502185015 60 60 4.0 8.0 0.00 0.00 0.00 80 1015.1
20260502184113 60 74 3.0 7.0 0.00 0.00 0.00 79 1014.9
20260502183110 61 133 1.0 4.0 0.00 0.00 0.00 78 1015.2
20260502182108 61 27 3.0 7.0 0.00 0.00 0.00 76 1015.1
20260502181105 61 34 1.0 7.0 0.00 0.00 0.00 74 1015.0
20260502164041 63 14 2.0 8.0 0.00 0.00 0.00 65 1015.8
20260502163039 63 47 3.0 8.0 0.00 0.00 0.00 67 1015.7
20260502162036 62 9 6.0 13.0 0.00 0.00 0.00 67 1015.6
20260502161033 63 31 5.0 8.0 0.00 0.00 0.00 65 1015.9
20260502152021 64 79 3.0 9.0 0.00 0.00 0.00 66 1016.4
20260502151018 65 169 1.0 4.0 0.00 0.00 0.00 68 1016.3
20260502123035 68 68 2.0 9.0 0.00 0.00 0.00 49 1017.5
20260502122033 68 85 2.0 4.0 0.00 0.00 0.00 51 1017.6
20260502121030 68 86 3.0 11.0 0.00 0.00 0.00 54 1017.6
20260502115025 66 8 2.0 6.0 0.00 0.00 0.00 63 1017.7
20260502114023 65 4 3.0 6.0 0.00 0.00 0.00 65 1017.8
20260502113020 64 341 3.0 8.0 0.00 0.00 0.00 65 1017.8
20260502112017 64 320 3.0 8.0 0.00 0.00 0.00 66 1017.9
20260502111115 64 351 4.0 9.0 0.00 0.00 0.00 67 1018.0
20260502110112 63 340 3.0 8.0 0.00 0.00 0.00 68 1017.9
20260502105109 62 332 5.0 8.0 0.00 0.00 0.00 68 1018.1
20260502104107 62 346 3.0 7.0 0.00 0.00 0.00 68 1018.4
20260502103104 62 322 3.0 7.0 0.00 0.00 0.00 69 1018.7
20260502102102 62 32 3.0 6.0 0.00 0.00 0.00 68 1018.7
20260502101059 62 3 2.0 6.0 0.00 0.00 0.00 68 1018.8
20260502091043 60 319 4.0 7.0 0.00 0.00 0.00 72 1018.9
20260502071112 59 1 5.0 7.0 0.00 0.00 0.00 80 1018.8
20260502070109 59 345 3.0 6.0 0.00 0.00 0.00 82 1018.8
20260502065107 59 353 3.0 6.0 0.00 0.00 0.00 82 1018.8
20260502064104 59 7 3.0 7.0 0.00 0.00 0.00 83 1018.8
20260502063102 59 0 3.0 6.0 0.00 0.00 0.00 83 1018.6
20260502062059 59 303 3.0 8.0 0.00 0.00 0.00 84 1018.5
20260502061057 58 330 2.0 6.0 0.00 0.00 0.00 84 1018.7
20260502060054 58 326 3.0 7.0 0.00 0.00 0.00 84 1018.5
20260502055051 58 7 4.0 7.0 0.00 0.00 0.00 85 1018.6
20260502054049 58 319 3.0 6.0 0.00 0.00 0.00 85 1018.5
20260502053046 58 327 3.0 4.0 0.00 0.00 0.00 85 1018.4
20260502052044 58 342 4.0 7.0 0.00 0.00 0.00 86 1018.4
20260502051041 58 342 3.0 4.0 0.00 0.00 0.00 86 1018.3
20260502050038 58 339 3.0 6.0 0.00 0.00 0.00 86 1018.3
20260502045035 58 336 3.0 7.0 0.00 0.00 0.00 87 1018.4
20260502044033 58 20 4.0 7.0 0.00 0.00 0.00 87 1018.4
20260502043030 58 325 4.0 7.0 0.00 0.00 0.00 86 1018.3
20260502042027 58 327 4.0 8.0 0.00 0.00 0.00 86 1018.3
20260502041024 58 327 2.0 6.0 0.00 0.00 0.00 87 1018.3
20260502040022 58 345 3.0 8.0 0.00 0.00 0.00 87 1018.3
20260502035019 58 22 3.0 6.0 0.00 0.00 0.00 87 1018.3
20260502034016 58 348 3.0 6.0 0.00 0.00 0.00 87 1018.4
20260502033114 58 14 3.0 7.0 0.00 0.00 0.00 88 1018.4
20260502032112 59 17 4.0 7.0 0.00 0.00 0.00 88 1018.3
20260502031109 59 338 4.0 7.0 0.00 0.00 0.00 88 1018.4
20260502030106 59 343 5.0 9.0 0.00 0.00 0.00 88 1018.4
20260502025104 59 355 4.0 7.0 0.00 0.00 0.00 88 1018.5
20260502024101 59 351 3.0 7.0 0.00 0.00 0.00 88 1018.6
20260502023059 59 311 4.0 6.0 0.00 0.00 0.00 88 1018.6
20260502022056 59 345 3.0 7.0 0.00 0.00 0.00 88 1018.5
20260502021053 59 321 3.0 7.0 0.00 0.00 0.00 88 1018.5
20260502020051 59 332 3.0 7.0 0.00 0.00 0.00 89 1018.7